www.pogodaiklimat.ru

Погода и климат >> Архив погоды >> Нигер >> Zinder


ПОГОДА в Zinder

  • Прогноз погоды в Zinder
  • Монитор погоды в Zinder
  • Климат города

АРХИВ ПОГОДЫ в Zinder

Время (UTC), дата Ветер
(напр.,м/с)
 
Видим.   Явления Облачность Т
(С)
Тd
(С)
f
(%)
Тe
(С)
Тes
(С)
Комфортность P
(гПа)
Po
(гПа)
Тmin
(С)
Tmax
(С)
R
(мм)
R24
(мм)
S
(см)
03 15.10 СВ 4 6000 м пыль 9/0
[Cs]
+24.8 +4.1 26 +24 +24 комфорт 1012.0 962.9
06 15.10 СВ 4 3000 м пыль 9/0
[Cs]
+23.4 +5.2 31 +24 +24 комфорт 1013.0 962.0 +23.4
09 15.10 СВ 10 8000 м пыль 9/0
[Cs]
+31.0 +2.1 16 +28 +29 жарко 1013.0 963.9
12 15.10 В 14 10 км 9/0
[Cs]
+35.5 +0.9 11 +32 +32 жарко 1011.0 961.5
15 15.10 СВ 10 10 км 6/0
[Ci sp]
+35.6 -4.2 8 +32 +32 жарко 1008.5 958.9
18 15.10 СВ 4 10 км 6/0
[Ci sp]
+32.0 -0.6 12 +29 +29 жарко 1010.4 960.4 +36.6
21 15.10 СВ 6 10 км 6/0
[Ci sp]
+29.8 +0.1 15 +27 +27 жарко 1012.1 962.4
03 16.10 СВ 6 10 км 9/0
[Cs]
+25.5 +1.3 21 +24 +24 комфорт 1011.8 962.1
06 16.10 СВ 8 10 км 9/0
[Ac As Ci sp]
+25.2 +1.7 22 +24 +24 комфорт 1013.7 963.6 +24.9
09 16.10 СВ 10 4000 м пыль 9/0
[Ac trans Ci sp]
+31.5 +0.5 14 +29 +29 жарко 1014.4 964.6
12 16.10 В 8 10 км 6/0
[Ci sp]
+34.7 +0.4 11 +31 +34 жарко 1012.4 962.7
15 16.10 СВ 10 10 км 6/0
[Ci sp]
+35.0 +1.3 12 +32 +32 жарко 1010.7 961.1
18 16.10 В 2 8000 м пыль 6/0
[Ci sp]
+31.7 +4.8 18 +29 +29 жарко 1011.6 961.6 +36.0
06 17.10 СВ 10 6000 м пыль 9/0
[Cs]
+24.5 -1.0 18 +23 +23 комфорт 1013.3 963.4 +23.5
09 17.10 СВ 10 2500 м пыль 9/0
[Cs]
+30.0 +0.9 15 +27 +28 жарко 1015.1 965.1
12 17.10 В 10 4000 м пыль 9/0
[Cs]
+33.8 +1.0 12 +30 +31 жарко 1012.5 962.8
15 17.10 В 6 4800 м пыль 9/0
[Cs]
+34.6 +0.7 12 +31 +33 жарко 1010.0 960.2
18 17.10 В 4 10 км 9/0
[Cs]
+30.2 +1.9 16 +28 +28 жарко 1010.8 960.6 +35.2
21 17.10 СВ 6 10 км 6/0
[Ci sp]
+27.0 +1.1 19 +25 +25 комфорт 1012.8 962.7
06 18.10 СВ 6 10 км 6/0
[Ci sp]
+21.9 +0.8 25 +21 +22 комфорт 1012.3 961.9 +20.6
09 18.10 В 4 10 км 5/0
[Ci fib]
+30.0 +1.0 15 +27 +34 жарко 1012.4 962.4
12 18.10 СВ 4 10 км 9/0
[Cs]
+33.0 -0.2 12 +30 +39 жарко 1010.9 961.0
15 18.10 СВ 6 10 км 9/0
[Cs]
+33.5 +1.6 13 +30 +32 жарко 1009.8 959.9
18 18.10 С 4 10 км 9/0
[Cs]
+29.4 +4.4 20 +28 +28 жарко 1010.5 960.2 +35.0
03 19.10 С 8 10 км 9/0
[Cs]
+23.0 -1.0 20 +22 +22 комфорт 1011.1 961.1
06 19.10 СВ 4 10 км 9/0
[Cs]
+21.0 +2.2 29 +21 +22 комфорт 1012.8 962.3 +20.5
09 19.10 СВ 10 10 км 6/0
[Ci sp]
+30.0 -1.1 13 +27 +27 жарко 1013.3 963.5
12 19.10 В 4 10 км 5/0
[Ci sp]
+34.0 +2.8 14 +31 +42 жарко 1011.7 961.8
15 19.10 Ю 2 10 км 5/0
[Ci sp]
+35.3 +2.9 13 +32 +37 жарко 1009.4 959.6
18 19.10 штиль 0 10 км 6/0
[Ci sp]
+29.8 +7.6 25 +29 +29 жарко 1010.1 959.6 +35.8
06 20.10 штиль 0 10 км 5/0
[Ci sp]
+18.5 +6.6 46 +19 +19 1011.7 961.0 +17.0
09 20.10 СВ 6 10 км 4/0
[Ci sp]
+31.5 +0.6 14 +29 +33 жарко 1012.9 962.8
12 20.10 СВ 4 10 км 4/0
[Ci sp]
+35.0 +1.7 12 +32 +42 жарко 1010.3 960.4
15 20.10 СЗ 4 10 км 4/0
[Ci sp]
+36.2 -0.7 10 +32 +36 жарко 1008.8 959.0
18 20.10 Ю 2 10 км 9/0
[Cs]
+31.5 +6.0 20 +30 +30 жарко 1011.1 960.6 +36.5
21 20.10 С 6 10 км 5/0
[Ci sp]
+28.0 +2.9 20 +26 +26 жарко 1011.8 962.0
03 21.10 СВ 4 10 км 5/0
[Ci sp]
+22.0 +2.4 27 +22 +22 комфорт 1011.0 961.1
06 21.10 штиль 0 10 км 5/0
[Ci sp]
+21.2 +3.9 32 +21 +22 комфорт 1012.0 961.6 +20.8
09 21.10 СВ 8 10 км 3/0
[Ci sp]
+32.0 +2.6 15 +28 +30 жарко 1013.1 963.3
12 21.10 С 6 10 км 6/0
[Ci sp]
+36.0 +3.4 13 +33 +39 жарко 1010.6 961.0
15 21.10 СВ 6 10 км 6/0
[Ci sp]
+36.0 -0.3 10 +32 +34 жарко 1008.5 958.8
18 21.10 СВ 4 10 км 6/0
[Ci sp]
+31.5 +6.0 20 +30 +30 жарко 1009.7 959.7 +37.0
21 21.10 С 4 10 км 6/0
[Ci sp]
+25.5 +7.0 31 +25 +25 комфорт 1011.5 961.6

 

Местоположение метеостанции Zinder (Нигер): широта 13.78 долгота 8.98 высота над уровнем моря 453 м.

В архиве по умолчанию представлена погода в Zinder за последнюю неделю. Архивные данные за месяц целиком и за предыдущие месяцы, начиная с января 2011 года, Вы можете получить, выбрав интересующий диапазон дат из раскрывающегося списка и нажав кнопку "Ввод!".

Внимание! Время в таблицах - всемирное. Для получения местного времени необходимо прибавить поправку, которая в Zinder равна 1 ч.

Смотрите также архив погоды в соседних городах и на ближайших метеорологических станциях:

Погода в Magaria (Нигер) (89 км)
Погода в Goure (Нигер) (144 км)
Погода в Cano (Нигерия) (199 км)
Погода в Maradi (Нигер) (208 км)
Погода в Maine-Soroa (Нигер) (330 км)
Погода в Agadez (Нигер) (371 км)
Погода в Birni-Nkonni (Нигер) (403 км)
Погода в Diffa (Нигер) (413 км)
Погода в Tahoua (Нигер) (421 км)
Погода в Nguigmi (Нигер) (450 км)

Пояснения к столбцам:

Ветер - указаны скорость ветра в м/с - средняя за 10 мин, порывы в срок и между сроками (в фигурных скобках) и направление, откуда дует ветер: С - северный, СВ - северо-восточный, В - восточный, ЮВ - юго-восточный, Ю - южный, ЮЗ - юго-западный, З - западный, СЗ - северо-западный.
Видимость - горизонтальная дальность видимости в метрах или километрах. При видимости от 1 до 10 км при отсутствии осадков обычно наблюдается дымка, при ухудшении видимости до 1 км и менее - туман. В сухую погоду видимость может ухудшаться дымом, пылью или мглою.
Явления - указаны атмосферные явления, наблюдавшиеся в срок или в последний час перед сроком; фигурными скобками обозначены явления, наблюдавшиеся между сроками (за 1-3 часа до срока); квадратными скобками обозначены град или гололедные отложения с указанием их диаметра в мм.
Облачность - указаны через наклонную черту общая и нижняя облачность в баллах и высота нижней границы облаков в метрах; квадратными скобками обозначены формы облаков: Ci - перистые, Cs - перисто-слоистые, Cc - перисто-кучевые, Ac - высококучевые, As - высокослоистые, Sc - слоисто-кучевые, Ns - слоисто-дождевые, Cu - кучевые, Cb - кучево-дождевые. Подробнее классификацию облаков см. в Атласе облаков (PDF).
T - Температура воздуха - температура, измеренная на высоте 2 м над землей.
Td - Температура точки росы - температура, при понижении до которой содержащийся в воздухе водяной пар достигнет насыщения.
f - Относительная влажность воздуха - влажноcть воздуха, измеренная на высоте 2 м над землей.
Te - Эффективная температура - температура, которую ощущает одетый по сезону человек в тени. Характеристика душности погоды. При расчете учитывается влияние влажности воздуха и скорости ветра на теплоощущения человека.
Tes - Эффективная температура на солнце - температура, которую ощущает человек, с поправкой на солнечный нагрев. Характеристика знойности погоды. Зависит от высоты солнца над горизонтом, облачности и скорости ветра. Ночью, в пасмурную погоду, а также при ветре 12 м/с и более поправка равна нулю.
P - Атмосферное давление - приведенное к уровню моря атмосферное давление.
Po - Атмосферное давление - измеренное на уровне метеостанции атмосферное давление.
Tmin - Минимальная температура - минимум температуры воздуха на высоте 2 м над землей.
Tmax - Максимальная температура - максимум температуры воздуха на высоте 2 м над землей.
R - Количество осадков - Количество выпавших осадков за период времени, мм. При наведении курсора мыши на число - период времени, за который выпало указанное количество осадков.
R24 - Количество осадков - Количество выпавших осадков за 24 часа, мм.
S - Снежный покров - Высота снежного покрова, см. При наведении курсора мыши на число - состояние снежного покрова и степень покрытия местности в баллах.